QPF
0.00 0.01 0.00 0.00 0.00 0.00 0.00 0.01 0.00 0.00 0.00 0.01 0.01 0.01 0.00 0.00 0.00 0.00 0.00 0.01 0.01 0.02 0.02 0.02 0.01 0.01 0.01 0.02 0.02 0.03 0.03 0.02 0.02 0.02 0.02 0.02 0.03 0.03 0.03 0.03 0.04 0.03 0.04 0.04
0.00 0.00 0.00 0.00 0.01 0.01 0.01 0.01 0.00 0.00 0.00 0.01 0.01 0.01 0.00 0.00 0.00 0.00 0.00 0.01 0.01 0.01 0.01 0.02 0.01 0.01 0.02 0.02 0.01 0.02 0.03 0.03 0.03 0.03 0.03 0.03 0.03 0.03 0.03 0.03 0.03 0.04 0.04 0.06
0.01 0.01 0.01 0.01 0.01 0.01 0.01 0.01 0.00 0.00 0.01 0.01 0.02 0.01 0.01 0.01 0.00 0.01 0.01 0.01 0.01 0.01 0.02 0.02 0.02 0.02 0.01 0.02 0.02 0.02 0.03 0.03 0.04 0.04 0.04 0.03 0.03 0.02 0.02 0.03 0.04 0.04 0.05 0.08
0.01 0.01 0.01 0.01 0.01 0.01 0.01 0.00 0.00 0.01 0.02 0.01 0.01 0.02 0.01 0.01 0.01 0.01 0.01 0.02 0.02 0.02 0.02 0.02 0.02 0.02 0.01 0.01 0.02 0.04 0.05 0.04 0.04 0.04 0.04 0.04 0.05 0.05 0.05 0.06 0.07 0.07 0.07 0.09
0.00 0.00 0.01 0.01 0.01 0.01 0.01 0.01 0.01 0.02 0.02 0.02 0.01 0.02 0.02 0.01 0.01 0.01 0.00 0.01 0.01 0.02 0.03 0.02 0.02 0.02 0.02 0.02 0.02 0.05 0.06 0.05 0.04 0.05 0.05 0.06 0.07 0.07 0.07 0.07 0.07 0.07 0.07 0.08
0.00 0.00 0.01 0.01 0.01 0.01 0.01 0.01 0.02 0.02 0.02 0.02 0.01 0.02 0.01 0.01 0.01 0.01 0.01 0.01 0.01 0.01 0.02 0.03 0.03 0.03 0.03 0.02 0.02 0.03 0.04 0.04 0.04 0.05 0.05 0.06 0.06 0.06 0.06 0.06 0.06 0.07 0.10 0.09
0.00 0.01 0.01 0.01 0.02 0.02 0.01 0.02 0.03 0.02 0.02 0.02 0.01 0.02 0.02 0.02 0.01 0.01 0.01 0.01 0.02 0.02 0.02 0.02 0.02 0.02 0.02 0.02 0.02 0.02 0.03 0.03 0.04 0.04 0.04 0.04 0.04 0.05 0.06 0.08 0.05 0.07 0.11 0.10
0.01 0.01 0.01 0.01 0.02 0.01 0.01 0.01 0.03 0.02 0.01 0.01 0.01 0.02 0.02 0.02 0.02 0.01 0.01 0.01 0.02 0.02 0.02 0.02 0.03 0.04 0.03 0.03 0.02 0.02 0.02 0.02 0.03 0.04 0.04 0.04 0.04 0.04 0.05 0.05 0.05 0.05 0.07 0.08
0.02 0.01 0.00 0.00 0.01 0.01 0.01 0.01 0.02 0.02 0.02 0.02 0.02 0.03 0.02 0.02 0.02 0.02 0.01 0.03 0.04 0.02 0.02 0.02 0.03 0.05 0.04 0.05 0.04 0.03 0.03 0.03 0.03 0.03 0.03 0.04 0.03 0.04 0.04 0.03 0.04 0.03 0.04 0.05
0.01 0.01 0.01 0.01 0.01 0.00 0.01 0.01 0.01 0.02 0.03 0.03 0.02 0.03 0.03 0.04 0.04 0.03 0.01 0.03 0.07 0.05 0.02 0.02 0.03 0.04 0.04 0.04 0.05 0.05 0.04 0.03 0.03 0.03 0.03 0.03 0.02 0.03 0.04 0.03 0.03 0.02 0.03 0.02
0.01 0.02 0.02 0.01 0.01 0.01 0.01 0.01 0.01 0.03 0.03 0.03 0.03 0.04 0.04 0.03 0.04 0.04 0.03 0.03 0.06 0.06 0.02 0.02 0.02 0.02 0.04 0.04 0.04 0.04 0.04 0.03 0.03 0.03 0.03 0.03 0.02 0.02 0.03 0.03 0.03 0.03 0.03 0.03
0.01 0.02 0.02 0.01 0.00 0.00 0.01 0.01 0.02 0.03 0.03 0.02 0.05 0.05 0.03 0.02 0.03 0.03 0.03 0.03 0.02 0.03 0.03 0.02 0.02 0.02 0.02 0.03 0.03 0.03 0.03 0.03 0.03 0.03 0.03 0.02 0.01 0.01 0.02 0.02 0.02 0.03 0.03 0.03
0.00 0.01 0.02 0.03 0.02 0.01 0.01 0.01 0.01 0.02 0.03 0.03 0.05 0.06 0.04 0.03 0.03 0.03 0.04 0.03 0.02 0.02 0.02 0.02 0.01 0.02 0.02 0.02 0.03 0.02 0.02 0.02 0.03 0.03 0.03 0.02 0.02 0.01 0.01 0.02 0.02 0.02 0.02 0.02
0.00 0.01 0.01 0.02 0.02 0.02 0.01 0.01 0.02 0.02 0.03 0.03 0.04 0.05 0.04 0.04 0.04 0.04 0.04 0.04 0.03 0.02 0.02 0.01 0.01 0.01 0.01 0.01 0.02 0.02 0.02 0.02 0.03 0.03 0.03 0.03 0.02 0.01 0.01 0.01 0.01 0.01 0.02 0.02
0.00 0.01 0.01 0.01 0.00 0.01 0.01 0.01 0.01 0.02 0.03 0.04 0.04 0.04 0.04 0.05 0.05 0.04 0.03 0.04 0.04 0.04 0.03 0.02 0.01 0.01 0.01 0.01 0.02 0.02 0.02 0.01 0.02 0.02 0.03 0.02 0.02 0.01 0.01 0.01 0.02 0.02 0.02 0.02
0.01 0.01 0.01 0.01 0.01 0.01 0.02 0.01 0.01 0.02 0.02 0.02 0.03 0.04 0.04 0.04 0.05 0.03 0.02 0.03 0.04 0.04 0.03 0.03 0.02 0.02 0.01 0.01 0.02 0.02 0.01 0.02 0.02 0.02 0.02 0.03 0.02 0.01 0.01 0.01 0.02 0.03 0.03 0.03
0.01 0.01 0.02 0.02 0.03 0.03 0.02 0.01 0.01 0.02 0.02 0.02 0.03 0.03 0.03 0.02 0.04 0.03 0.02 0.02 0.02 0.02 0.03 0.03 0.03 0.02 0.01 0.02 0.02 0.02 0.01 0.01 0.01 0.02 0.02 0.02 0.02 0.02 0.01 0.01 0.01 0.02 0.04 0.03
0.02 0.02 0.02 0.02 0.04 0.04 0.01 0.01 0.00 0.01 0.01 0.01 0.01 0.01 0.01 0.01 0.02 0.02 0.01 0.02 0.02 0.01 0.01 0.02 0.02 0.01 0.01 0.02 0.03 0.04 0.02 0.01 0.01 0.01 0.01 0.01 0.01 0.02 0.02 0.01 0.02 0.02 0.03 0.04
0.01 0.02 0.02 0.02 0.03 0.02 0.01 0.01 0.01 0.01 0.01 0.01 0.01 0.01 0.01 0.01 0.01 0.01 0.01 0.01 0.01 0.01 0.01 0.01 0.01 0.01 0.02 0.02 0.03 0.04 0.04 0.04 0.03 0.02 0.01 0.01 0.01 0.01 0.01 0.01 0.02 0.03 0.03 0.03
0.01 0.01 0.02 0.02 0.02 0.02 0.01 0.01 0.01 0.02 0.03 0.01 0.01 0.01 0.00 0.01 0.01 0.01 0.01 0.00 0.01 0.01 0.01 0.01 0.01 0.01 0.01 0.01 0.02 0.03 0.04 0.04 0.03 0.03 0.02 0.01 0.01 0.01 0.01 0.01 0.02 0.03 0.03 0.02
0.03 0.02 0.01 0.02 0.02 0.02 0.01 0.01 0.02 0.03 0.03 0.01 0.01 0.01 0.01 0.01 0.02 0.02 0.01 0.01 0.00 0.01 0.00 0.00 0.00 0.01 0.01 0.01 0.02 0.02 0.03 0.03 0.03 0.04 0.02 0.02 0.01 0.01 0.01 0.01 0.02 0.03 0.03 0.03
0.05 0.05 0.03 0.03 0.02 0.02 0.01 0.01 0.02 0.02 0.01 0.01 0.02 0.02 0.02 0.02 0.01 0.01 0.01 0.01 0.01 0.00 0.00 0.00 0.00 0.01 0.01 0.01 0.01 0.01 0.02 0.02 0.03 0.03 0.03 0.03 0.02 0.02 0.02 0.01 0.02 0.02 0.02 0.02
0.03 0.03 0.03 0.04 0.03 0.02 0.01 0.01 0.01 0.01 0.01 0.02 0.02 0.03 0.02 0.02 0.02 0.01 0.01 0.01 0.01 0.01 0.01 0.01 0.01 0.01 0.01 0.02 0.02 0.02 0.02 0.02 0.03 0.04 0.03 0.03 0.02 0.02 0.02 0.02 0.02 0.02 0.03 0.04
0.02 0.01 0.02 0.03 0.03 0.03 0.02 0.01 0.02 0.01 0.01 0.01 0.02 0.02 0.02 0.02 0.03 0.03 0.03 0.02 0.02 0.01 0.01 0.01 0.01 0.01 0.01 0.02 0.02 0.02 0.02 0.01 0.02 0.03 0.03 0.02 0.02 0.02 0.02 0.02 0.02 0.03 0.03 0.04
0.03 0.01 0.02 0.04 0.05 0.03 0.03 0.02 0.02 0.02 0.01 0.01 0.01 0.02 0.02 0.03 0.03 0.03 0.03 0.02 0.01 0.01 0.01 0.02 0.01 0.01 0.02 0.02 0.02 0.02 0.02 0.01 0.02 0.02 0.02 0.02 0.02 0.02 0.02 0.02 0.02 0.02 0.03 0.03
0.02 0.02 0.02 0.03 0.04 0.05 0.04 0.02 0.02 0.01 0.01 0.01 0.01 0.01 0.01 0.02 0.02 0.03 0.03 0.01 0.01 0.01 0.01 0.01 0.02 0.02 0.02 0.02 0.03 0.02 0.02 0.02 0.02 0.02 0.02 0.03 0.02 0.02 0.02 0.03 0.04 0.03 0.02 0.02
MSLP
1008.66 1008.98 1009.23 1009.41 1009.56 1009.69 1009.82 1009.95 1010.06 1010.13 1010.13 1010.04 1009.85 1009.59 1009.29 1009.01 1008.81 1008.74 1008.83 1009.07 1009.47 1009.98 1010.56 1011.17 1011.75 1012.28 1012.76 1013.19 1013.56 1013.88 1014.16 1014.40 1014.59 1014.73 1014.83 1014.89 1014.92 1014.94 1014.96 1015.00 1015.05 1015.10 1015.13 1015.12
1008.84 1009.09 1009.27 1009.42 1009.55 1009.70 1009.88 1010.07 1010.25 1010.37 1010.39 1010.29 1010.06 1009.72 1009.32 1008.92 1008.61 1008.44 1008.45 1008.66 1009.06 1009.59 1010.21 1010.87 1011.50 1012.08 1012.59 1013.04 1013.43 1013.77 1014.08 1014.35 1014.58 1014.76 1014.89 1014.98 1015.02 1015.04 1015.05 1015.06 1015.08 1015.11 1015.13 1015.12
1008.97 1009.13 1009.25 1009.34 1009.45 1009.61 1009.82 1010.07 1010.30 1010.47 1010.52 1010.40 1010.12 1009.69 1009.18 1008.67 1008.24 1007.98 1007.93 1008.11 1008.50 1009.07 1009.74 1010.46 1011.16 1011.80 1012.37 1012.87 1013.29 1013.68 1014.02 1014.33 1014.60 1014.83 1015.00 1015.11 1015.17 1015.18 1015.16 1015.14 1015.12 1015.11 1015.10 1015.08
1009.04 1009.11 1009.15 1009.19 1009.27 1009.43 1009.66 1009.95 1010.23 1010.43 1010.48 1010.35 1010.01 1009.50 1008.88 1008.25 1007.71 1007.35 1007.24 1007.39 1007.79 1008.39 1009.13 1009.93 1010.71 1011.43 1012.07 1012.63 1013.12 1013.55 1013.95 1014.31 1014.64 1014.91 1015.12 1015.26 1015.33 1015.33 1015.29 1015.23 1015.16 1015.10 1015.05 1015.00
1009.05 1009.04 1008.99 1008.97 1009.01 1009.16 1009.41 1009.72 1010.03 1010.26 1010.31 1010.15 1009.76 1009.16 1008.44 1007.69 1007.04 1006.60 1006.42 1006.54 1006.96 1007.60 1008.41 1009.28 1010.15 1010.96 1011.69 1012.32 1012.87 1013.36 1013.82 1014.23 1014.61 1014.94 1015.20 1015.37 1015.45 1015.45 1015.39 1015.29 1015.17 1015.07 1014.98 1014.90
1009.02 1008.92 1008.80 1008.71 1008.71 1008.84 1009.09 1009.42 1009.75 1009.98 1010.03 1009.84 1009.39 1008.72 1007.90 1007.05 1006.31 1005.78 1005.55 1005.65 1006.07 1006.76 1007.63 1008.59 1009.55 1010.44 1011.25 1011.95 1012.56 1013.11 1013.61 1014.08 1014.50 1014.88 1015.17 1015.38 1015.48 1015.49 1015.41 1015.29 1015.14 1014.99 1014.86 1014.76
1008.96 1008.78 1008.59 1008.44 1008.40 1008.50 1008.75 1009.08 1009.42 1009.65 1009.69 1009.47 1008.98 1008.24 1007.34 1006.41 1005.59 1005.00 1004.72 1004.80 1005.23 1005.96 1006.89 1007.92 1008.96 1009.93 1010.80 1011.56 1012.22 1012.81 1013.34 1013.83 1014.29 1014.69 1015.02 1015.26 1015.39 1015.41 1015.34 1015.20 1015.03 1014.87 1014.71 1014.58
1008.87 1008.63 1008.38 1008.18 1008.10 1008.19 1008.42 1008.75 1009.09 1009.32 1009.36 1009.12 1008.59 1007.81 1006.86 1005.87 1005.00 1004.36 1004.05 1004.12 1004.56 1005.31 1006.29 1007.37 1008.47 1009.50 1010.42 1011.21 1011.89 1012.49 1013.02 1013.52 1013.98 1014.40 1014.75 1015.01 1015.16 1015.20 1015.15 1015.03 1014.86 1014.69 1014.53 1014.40
1008.76 1008.48 1008.18 1007.95 1007.84 1007.91 1008.14 1008.47 1008.81 1009.05 1009.08 1008.84 1008.30 1007.50 1006.52 1005.51 1004.60 1003.94 1003.61 1003.68 1004.13 1004.90 1005.90 1007.01 1008.14 1009.20 1010.14 1010.94 1011.62 1012.20 1012.71 1013.19 1013.63 1014.04 1014.39 1014.66 1014.84 1014.91 1014.88 1014.79 1014.65 1014.50 1014.35 1014.23
1008.62 1008.31 1007.99 1007.75 1007.64 1007.70 1007.93 1008.26 1008.61 1008.85 1008.89 1008.66 1008.13 1007.33 1006.36 1005.35 1004.44 1003.78 1003.45 1003.51 1003.95 1004.72 1005.73 1006.86 1007.99 1009.05 1009.98 1010.77 1011.42 1011.96 1012.44 1012.87 1013.28 1013.66 1014.00 1014.27 1014.47 1014.57 1014.58 1014.53 1014.43 1014.32 1014.21 1014.12
1008.42 1008.12 1007.82 1007.58 1007.48 1007.56 1007.79 1008.13 1008.49 1008.74 1008.80 1008.58 1008.08 1007.31 1006.37 1005.38 1004.49 1003.84 1003.52 1003.57 1004.01 1004.77 1005.76 1006.87 1007.99 1009.03 1009.93 1010.69 1011.30 1011.80 1012.23 1012.61 1012.97 1013.32 1013.64 1013.91 1014.12 1014.25 1014.31 1014.31 1014.26 1014.20 1014.14 1014.09
1008.17 1007.89 1007.62 1007.41 1007.35 1007.44 1007.70 1008.05 1008.41 1008.67 1008.75 1008.55 1008.08 1007.35 1006.46 1005.51 1004.66 1004.03 1003.72 1003.78 1004.20 1004.93 1005.89 1006.96 1008.05 1009.05 1009.92 1010.64 1011.22 1011.68 1012.06 1012.40 1012.73 1013.04 1013.35 1013.61 1013.84 1014.00 1014.09 1014.14 1014.15 1014.15 1014.14 1014.14
1007.83 1007.60 1007.37 1007.22 1007.20 1007.33 1007.60 1007.96 1008.32 1008.59 1008.67 1008.49 1008.05 1007.37 1006.52 1005.64 1004.83 1004.23 1003.94 1003.99 1004.39 1005.08 1006.00 1007.03 1008.07 1009.04 1009.88 1010.58 1011.13 1011.57 1011.92 1012.24 1012.55 1012.84 1013.13 1013.40 1013.63 1013.82 1013.95 1014.04 1014.10 1014.15 1014.19 1014.23
1007.43 1007.25 1007.08 1006.99 1007.01 1007.17 1007.45 1007.81 1008.16 1008.41 1008.48 1008.31 1007.89 1007.25 1006.46 1005.63 1004.88 1004.33 1004.05 1004.11 1004.48 1005.14 1006.01 1007.00 1008.00 1008.93 1009.75 1010.43 1010.98 1011.42 1011.78 1012.10 1012.40 1012.70 1012.98 1013.26 1013.50 1013.70 1013.86 1013.99 1014.08 1014.17 1014.25 1014.34
1006.98 1006.85 1006.74 1006.70 1006.77 1006.95 1007.23 1007.56 1007.87 1008.08 1008.11 1007.93 1007.53 1006.92 1006.19 1005.42 1004.74 1004.24 1004.00 1004.06 1004.43 1005.06 1005.89 1006.83 1007.79 1008.70 1009.52 1010.20 1010.77 1011.23 1011.61 1011.95 1012.27 1012.58 1012.87 1013.15 1013.40 1013.62 1013.79 1013.93 1014.05 1014.16 1014.27 1014.38
1006.53 1006.45 1006.39 1006.39 1006.48 1006.66 1006.91 1007.19 1007.43 1007.57 1007.55 1007.35 1006.94 1006.36 1005.68 1004.99 1004.39 1003.96 1003.77 1003.86 1004.23 1004.85 1005.65 1006.55 1007.49 1008.39 1009.20 1009.90 1010.50 1010.99 1011.42 1011.79 1012.14 1012.46 1012.77 1013.06 1013.31 1013.52 1013.70 1013.84 1013.97 1014.08 1014.20 1014.32
1006.14 1006.09 1006.07 1006.09 1006.18 1006.33 1006.53 1006.72 1006.87 1006.92 1006.83 1006.58 1006.16 1005.62 1005.00 1004.40 1003.88 1003.55 1003.43 1003.57 1003.97 1004.59 1005.37 1006.25 1007.17 1008.05 1008.86 1009.58 1010.21 1010.74 1011.20 1011.62 1011.99 1012.34 1012.65 1012.94 1013.19 1013.39 1013.56 1013.70 1013.81 1013.92 1014.03 1014.14
1005.88 1005.85 1005.85 1005.88 1005.94 1006.04 1006.15 1006.24 1006.27 1006.21 1006.03 1005.72 1005.29 1004.78 1004.24 1003.74 1003.34 1003.11 1003.10 1003.31 1003.75 1004.38 1005.16 1006.03 1006.92 1007.79 1008.60 1009.32 1009.96 1010.52 1011.01 1011.45 1011.84 1012.19 1012.51 1012.79 1013.02 1013.21 1013.37 1013.48 1013.59 1013.68 1013.77 1013.88
1005.79 1005.79 1005.79 1005.80 1005.83 1005.85 1005.85 1005.82 1005.72 1005.54 1005.26 1004.90 1004.47 1004.00 1003.54 1003.15 1002.89 1002.79 1002.89 1003.19 1003.69 1004.35 1005.13 1005.97 1006.84 1007.68 1008.47 1009.18 1009.82 1010.38 1010.87 1011.31 1011.70 1012.05 1012.35 1012.61 1012.83 1013.00 1013.14 1013.24 1013.33 1013.41 1013.49 1013.59
1005.93 1005.94 1005.95 1005.93 1005.90 1005.83 1005.72 1005.55 1005.31 1005.02 1004.65 1004.25 1003.82 1003.40 1003.03 1002.77 1002.64 1002.68 1002.90 1003.29 1003.84 1004.53 1005.31 1006.13 1006.96 1007.76 1008.50 1009.18 1009.79 1010.33 1010.80 1011.22 1011.59 1011.92 1012.20 1012.43 1012.63 1012.78 1012.90 1013.00 1013.08 1013.16 1013.25 1013.34
1006.31 1006.34 1006.35 1006.30 1006.20 1006.03 1005.80 1005.50 1005.14 1004.73 1004.29 1003.85 1003.43 1003.07 1002.80 1002.66 1002.66 1002.82 1003.15 1003.62 1004.23 1004.93 1005.69 1006.48 1007.26 1008.00 1008.68 1009.31 1009.87 1010.36 1010.79 1011.18 1011.51 1011.81 1012.06 1012.27 1012.44 1012.59 1012.70 1012.80 1012.89 1012.99 1013.09 1013.19
1006.92 1006.99 1006.98 1006.90 1006.73 1006.47 1006.12 1005.70 1005.23 1004.72 1004.22 1003.76 1003.35 1003.04 1002.86 1002.82 1002.93 1003.20 1003.61 1004.15 1004.78 1005.48 1006.21 1006.94 1007.66 1008.33 1008.95 1009.50 1010.00 1010.44 1010.83 1011.17 1011.47 1011.72 1011.94 1012.13 1012.28 1012.42 1012.54 1012.66 1012.77 1012.90 1013.03 1013.16
1007.75 1007.84 1007.83 1007.70 1007.46 1007.11 1006.66 1006.14 1005.57 1004.99 1004.43 1003.95 1003.55 1003.29 1003.17 1003.21 1003.40 1003.74 1004.20 1004.76 1005.39 1006.06 1006.74 1007.41 1008.06 1008.65 1009.20 1009.70 1010.14 1010.52 1010.87 1011.17 1011.43 1011.65 1011.84 1012.01 1012.16 1012.29 1012.42 1012.56 1012.71 1012.87 1013.04 1013.22
1008.75 1008.85 1008.82 1008.66 1008.35 1007.91 1007.37 1006.76 1006.11 1005.46 1004.87 1004.36 1003.98 1003.74 1003.66 1003.74 1003.97 1004.33 1004.79 1005.34 1005.94 1006.56 1007.18 1007.78 1008.35 1008.88 1009.37 1009.81 1010.21 1010.56 1010.87 1011.15 1011.38 1011.58 1011.75 1011.90 1012.04 1012.17 1012.32 1012.47 1012.66 1012.86 1013.08 1013.30
1009.84 1009.95 1009.90 1009.69 1009.31 1008.80 1008.18 1007.49 1006.77 1006.08 1005.45 1004.92 1004.54 1004.30 1004.23 1004.31 1004.53 1004.88 1005.31 1005.80 1006.34 1006.89 1007.44 1007.97 1008.47 1008.95 1009.40 1009.80 1010.18 1010.52 1010.82 1011.08 1011.30 1011.49 1011.64 1011.78 1011.91 1012.04 1012.19 1012.36 1012.57 1012.80 1013.06 1013.33
1010.97 1011.07 1010.98 1010.71 1010.27 1009.69 1009.00 1008.24 1007.47 1006.74 1006.08 1005.54 1005.14 1004.89 1004.79 1004.85 1005.03 1005.31 1005.68 1006.10 1006.55 1007.02 1007.49 1007.95 1008.41 1008.84 1009.27 1009.67 1010.04 1010.38 1010.69 1010.95 1011.17 1011.36 1011.50 1011.63 1011.74 1011.86 1012.01 1012.18 1012.40 1012.65 1012.94 1013.24
Thickness
5756 5750 5748 5755 5760 5761 5758 5754 5751 5758 5768 5761 5757 5760 5768 5773 5771 5770 5770 5770 5767 5766 5766 5764 5761 5759 5755 5751 5747 5745 5742 5740 5737 5735 5732 5729 5726 5725 5725 5723 5720 5719 5717 5716
5745 5745 5758 5762 5759 5755 5752 5747 5750 5757 5763 5757 5754 5757 5767 5770 5768 5768 5768 5766 5764 5763 5761 5758 5756 5754 5751 5747 5745 5743 5740 5738 5735 5733 5730 5727 5724 5723 5722 5721 5718 5716 5714 5713
5742 5754 5760 5753 5749 5745 5747 5747 5750 5749 5754 5756 5751 5751 5760 5767 5768 5766 5766 5767 5766 5761 5757 5754 5751 5750 5748 5745 5742 5741 5738 5735 5733 5730 5728 5724 5720 5719 5718 5716 5715 5713 5712 5710
5746 5756 5751 5746 5746 5746 5741 5755 5752 5748 5742 5745 5747 5737 5754 5761 5759 5759 5761 5763 5763 5761 5757 5752 5749 5747 5745 5743 5741 5738 5735 5732 5729 5727 5725 5722 5718 5716 5714 5713 5712 5710 5708 5707
5744 5750 5746 5742 5748 5749 5748 5755 5749 5746 5743 5740 5745 5736 5750 5759 5752 5755 5758 5759 5759 5759 5755 5750 5748 5745 5743 5740 5738 5735 5731 5728 5726 5724 5722 5718 5717 5715 5713 5711 5708 5706 5705 5703
5749 5755 5751 5750 5754 5752 5751 5747 5744 5744 5742 5726 5738 5732 5736 5752 5750 5752 5755 5755 5754 5754 5752 5749 5746 5743 5740 5738 5736 5733 5729 5724 5722 5721 5719 5716 5714 5711 5709 5706 5705 5704 5702 5701
5737 5744 5750 5751 5742 5744 5743 5731 5721 5721 5724 5728 5743 5733 5735 5748 5751 5751 5750 5750 5750 5750 5748 5745 5742 5740 5737 5735 5733 5731 5726 5721 5720 5718 5715 5714 5711 5709 5706 5705 5703 5702 5701 5698
5727 5729 5742 5746 5741 5738 5738 5734 5717 5709 5717 5731 5736 5728 5741 5748 5749 5749 5749 5749 5747 5746 5745 5742 5740 5737 5735 5732 5730 5727 5724 5720 5718 5715 5713 5711 5709 5708 5706 5703 5703 5700 5699 5698
5729 5728 5744 5746 5747 5743 5734 5733 5741 5728 5727 5721 5729 5733 5739 5744 5742 5742 5742 5742 5741 5742 5740 5739 5737 5734 5731 5729 5726 5724 5721 5717 5715 5713 5711 5708 5707 5706 5704 5701 5700 5699 5696 5695
5735 5722 5736 5741 5741 5740 5741 5739 5730 5721 5706 5705 5721 5724 5729 5732 5734 5737 5737 5737 5737 5738 5737 5735 5733 5730 5728 5726 5724 5722 5719 5715 5713 5711 5709 5707 5705 5703 5701 5700 5697 5696 5694 5692
5733 5719 5724 5729 5726 5728 5728 5727 5726 5724 5720 5705 5705 5719 5738 5734 5734 5734 5735 5736 5735 5734 5733 5731 5728 5726 5724 5723 5721 5718 5715 5712 5710 5709 5707 5704 5702 5700 5698 5697 5695 5693 5691 5689
5727 5721 5716 5724 5736 5740 5734 5730 5724 5709 5708 5712 5710 5715 5739 5736 5735 5733 5732 5732 5732 5731 5730 5727 5724 5722 5720 5718 5717 5714 5712 5710 5708 5706 5703 5700 5699 5697 5695 5694 5692 5691 5688 5686
5721 5712 5701 5706 5714 5723 5723 5726 5725 5721 5714 5707 5703 5712 5731 5730 5729 5729 5727 5726 5725 5725 5723 5722 5719 5717 5715 5714 5712 5711 5709 5707 5706 5704 5700 5697 5695 5693 5691 5690 5689 5687 5685 5683
5719 5711 5705 5701 5710 5718 5714 5717 5719 5715 5707 5706 5709 5712 5719 5721 5720 5721 5721 5721 5721 5719 5717 5716 5713 5712 5710 5708 5707 5706 5705 5704 5702 5700 5697 5693 5691 5689 5687 5687 5685 5684 5682 5680
5711 5705 5710 5714 5719 5718 5714 5713 5712 5710 5710 5706 5709 5710 5714 5716 5716 5716 5716 5716 5715 5714 5712 5711 5709 5707 5706 5704 5702 5701 5700 5699 5698 5696 5693 5690 5688 5686 5684 5682 5681 5680 5678 5677
5702 5699 5702 5702 5710 5710 5707 5709 5709 5707 5709 5708 5707 5705 5715 5715 5715 5711 5710 5710 5709 5709 5708 5708 5706 5704 5702 5700 5698 5696 5695 5695 5694 5691 5689 5687 5684 5682 5680 5678 5677 5675 5673 5672
5696 5692 5690 5694 5702 5699 5693 5704 5704 5702 5706 5706 5701 5704 5708 5705 5704 5704 5704 5705 5705 5706 5704 5703 5701 5700 5698 5697 5695 5693 5691 5690 5688 5686 5684 5683 5680 5678 5676 5675 5673 5671 5669 5668
5683 5684 5688 5690 5687 5674 5694 5708 5705 5700 5699 5703 5702 5702 5701 5700 5701 5702 5702 5701 5700 5700 5699 5698 5697 5696 5695 5694 5692 5690 5689 5686 5684 5682 5680 5679 5677 5675 5672 5670 5668 5666 5665 5664
5681 5679 5681 5682 5679 5681 5688 5695 5695 5690 5687 5693 5693 5693 5696 5699 5698 5696 5698 5697 5696 5696 5695 5694 5694 5693 5692 5690 5688 5685 5683 5681 5679 5678 5677 5675 5674 5671 5668 5666 5664 5662 5661 5660
5675 5675 5676 5677 5671 5669 5678 5689 5694 5688 5677 5683 5685 5684 5687 5690 5687 5687 5690 5690 5691 5690 5691 5690 5689 5689 5687 5685 5683 5680 5677 5676 5675 5674 5674 5672 5670 5667 5665 5663 5660 5659 5657 5656
5663 5665 5668 5671 5668 5671 5672 5682 5684 5669 5667 5672 5676 5676 5677 5677 5679 5681 5683 5683 5684 5683 5684 5684 5683 5682 5681 5680 5678 5675 5673 5672 5672 5671 5670 5668 5666 5663 5661 5658 5655 5653 5652 5651
5653 5659 5660 5664 5660 5656 5662 5671 5665 5660 5664 5666 5667 5668 5668 5669 5673 5675 5676 5676 5676 5676 5677 5678 5677 5676 5675 5674 5672 5671 5669 5669 5668 5667 5666 5663 5661 5660 5658 5654 5650 5648 5647 5645
5644 5644 5651 5650 5647 5647 5653 5654 5655 5657 5656 5657 5659 5662 5663 5663 5666 5668 5669 5669 5670 5670 5671 5671 5671 5669 5669 5669 5667 5665 5665 5665 5663 5661 5659 5658 5656 5654 5653 5650 5647 5645 5643 5643
5634 5637 5639 5637 5638 5641 5643 5645 5646 5648 5649 5652 5654 5655 5657 5658 5660 5661 5662 5663 5663 5664 5664 5665 5664 5663 5662 5663 5662 5661 5660 5659 5657 5655 5654 5653 5652 5650 5648 5646 5646 5644 5641 5640
5621 5627 5630 5628 5628 5631 5634 5635 5637 5640 5644 5646 5648 5649 5651 5653 5654 5654 5654 5655 5656 5657 5658 5658 5657 5657 5657 5657 5657 5656 5655 5653 5651 5650 5650 5649 5649 5648 5644 5643 5640 5639 5637 5635
5614 5614 5617 5619 5620 5622 5623 5627 5631 5632 5635 5637 5640 5642 5644 5647 5648 5649 5649 5649 5649 5649 5650 5650 5650 5651 5651 5651 5651 5650 5650 5648 5646 5645 5645 5646 5645 5644 5642 5639 5636 5630 5628 5625